Regional Weather Roundup
Issued by NWS

Current Version | Previous Version | Text Only | Print | Product List | Glossary On
Versions: 1 2 3 4 5 6 7 8 9 10 11 12 13 14 15 16 17 18 19 20 21 22 23 24 25 26 27 28 29 30 31 32 33 34 35 36 37 38 39 40 41 42 43 44 45 46 47 48 49 50
000
ASUS44 KFWD 272115
RWRTX
NORTH TEXAS HOURLY WEATHER ROUNDUP
NATIONAL WEATHER SERVICE FORT WORTH TX
300 PM CST MON FEB 27 2017

NOTE: "FAIR" INDICATES FEW OR NO CLOUDS BELOW 12,000 FEET WITH NO
SIGNIFICANT WEATHER AND/OR OBSTRUCTIONS TO VISIBILITY.

TXZ118-119-272200-
DALLAS/FORT WORTH METROPLEX

CITY           SKY/WX    TMP DP  RH WIND       PRES   REMARKS
DFW AIRPORT    CLOUDY    77  63  61 S20       29.85F
DALLAS LOVE    PTSUNNY   77  61  57 S13       29.86F
FTW MEACHAM    PTSUNNY   78  62  57 S20       29.85F
DAL-EXECUTIVE  PTSUNNY   78  63  59 VRB7G23   29.86F
FTW-ALLIANCE   PTSUNNY   77  61  57 S15G23    29.85F
FTW-NAS-JRB    CLOUDY    78  62  57 S22       29.86F
FTW-SPINKS     MOSUNNY   79  63  57 S12G21    29.88F
ARLINGTON      PTSUNNY   77  62  59 S13G24    29.87F
GRAND PRAIRIE  MOSUNNY   75  63  64 S12G21    29.88F
ADDISON        DRIZZLE   73  63  68 S7G15     29.88F
MESQUITE       CLOUDY    75  63  64 S14       29.88F
LANCASTER      CLOUDY    76  63  63 S14G20    29.88F
$$

TXZ091>094-102>105-117-120-121-131>134-272200-
NORTH CENTRAL TEXAS

CITY           SKY/WX    TMP DP  RH WIND       PRES   REMARKS
SHRMAN/DENISON CLOUDY    70  63  78 SE12      29.88F
GAINESVILLE    CLOUDY    73  62  68 S20       29.87F
BOWIE          PTSUNNY   79  62  56 S17G26    29.83F
BRIDGEPORT     CLOUDY    73  62  66 S9G17     29.87F
DECATUR        CLOUDY    73  62  68 S13G20    29.86F
DENTON         CLOUDY    74  63  68 S14       29.86F
MCKINNEY       CLOUDY    73  66  78 SE13      29.87F
BONHAM         CLOUDY    68  63  83 SE10      29.89F
GREENVILLE     PTSUNNY   75  63  64 SE8       29.89F
ROCKWALL       CLOUDY    74  64  71 S12G17    29.88F
TERRELL        LGT RAIN  77  64  64 S12       29.89F
WAXAHACHIE     CLOUDY    76  65  69 S12       29.89F
CLEBURNE       CLOUDY    75  66  73 S12       29.89F
GRANBURY       PTSUNNY   79  63  57 S16       29.87F
$$

TXZ083>090-098>101-113>116-127>130-139>142-154-155-272200-
WESTERN NORTH TEXAS

CITY           SKY/WX    TMP DP  RH WIND       PRES   REMARKS
WICHITA FALLS  MOSUNNY   79  53  40 S14G24    29.80F
WF-KICKAPOO    MOSUNNY   78  55  44 S13G20    29.81F
VERNON         SUNNY     78  34  19 SW20      29.81F
ABILENE        SUNNY     77  49  37 SW14      29.86F
ABILENE-DYESS  SUNNY     78  51  39 SW14      29.84F
GRAHAM         SUNNY     79  61  53 S15G24    29.81F
BRECKENRIDGE   MOSUNNY   79  58  48 S12G18    29.84F
CISCO          MOSUNNY   77  59  53 S12G21    29.87F
RANGER         PTSUNNY   73  59  60 S14G20    29.87F
MINERAL WELLS  PTSUNNY   76  62  62 S14       29.84F
STEPHENVILLE   PTSUNNY   76  61  60 S13       29.90F
COMANCHE       MOSUNNY   76  62  62 S12       29.89F
BROWNWOOD      MOSUNNY   77  59  53 S12       29.87F
COLEMAN        MOSUNNY   78  54  43 S6        29.87F
$$

TXZ143>147-156>162-174-175-272200-
CENTRAL TEXAS

CITY           SKY/WX    TMP DP  RH WIND       PRES   REMARKS
WACO           PTSUNNY   78  64  61 S15       29.88F
WACO-MCGREGOR  MOSUNNY   79  66  64 SW13G18   29.89F
HILLSBORO      PTSUNNY   79  66  64 S14       29.88F
CORSICANA      MOSUNNY   80  63  55 S15       29.89F
MEXIA          PTSUNNY   80  63  55 SE13      29.88F
HEARNE         PTSUNNY   82  64  53 SE14      29.90F
CAMERON        CLOUDY    80  64  56 S10G16    29.89F
TEMPLE         PTSUNNY   78  66  66 SW9       29.90F
KILLEEN        MOSUNNY   76  64  65 S10       29.88F
KILLEEN-SKYLRK PTSUNNY   76  65  68 S12       29.90F
FORT HOOD      PTSUNNY   75  64  67 S14       29.87F
GATESVILLE     MOSUNNY   75  63  64 S10       29.91F
HAMILTON       PTSUNNY   76  61  60 S13       29.91S
LAMPASAS       PTSUNNY   76  64  67 S8        29.89F
$$

TXZ095>097-106>112-122>126-135>138-148>153-164>167-272200-
EAST TEXAS

CITY           SKY/WX    TMP DP  RH WIND       PRES   REMARKS
PARIS          CLOUDY    63  57  82 SE8       29.93F
SULPHUR SPRNGS CLOUDY    73  65  75 SE9       29.91F
MOUNT PLEASANT CLOUDY    65  63  91 SE9       29.94F
GILMER           N/A     71  65  81 E7        29.91F
MINEOLA        PTSUNNY   70  64  83 E5        29.89F
TYLER          PTSUNNY   81  61  50 S14       29.89F
LONGVIEW       MOSUNNY   81  63  54 S13       29.91F
MARSHALL       SUNNY     73  64  75 SE8       29.96F
ATHENS         MOSUNNY   81  61  50 S15G26    29.88F
PALESTINE      MOSUNNY   81  63  54 S10G16    29.91F
JACKSONVILLE   PTSUNNY   79  62  55 S9G20     29.94F
HENDERSON      PTSUNNY   79  62  55 S9G20     29.92F
CENTER         CLOUDY    82  65  56 S7        29.96F
NACOGDOCHES    MOSUNNY   82  64  54 S14       29.91F
LUFKIN         MOSUNNY   80  63  55 S9G17     29.93F
$$

SUPPLEMENTAL OBSERVATIONS (CENTRAL)

CITY           SKY/WX    TMP DP  RH WIND       PRES   REMARKS
DENISON DAM      N/A     64  61  88 E5          N/A
CADDO GRASSLND   N/A     66  61  82 SE7         N/A
PAT MAYSE LAKE   N/A     61  59  94 E7          N/A
ATHENS           N/A     81  57  44 S18G26      N/A
LAKE LIMESTONE   N/A     82  61  47 S13         N/A
MCGREGOR         N/A     79  66  65 SW8         N/A
TEMPLE           N/A     79  64  61 S9          N/A
$$

SUPPLEMENTAL OBSERVATIONS (WEST)

CITY           SKY/WX    TMP DP  RH WIND       PRES   REMARKS
MILLERS CREEK    N/A     81  37  21 SW17G26     N/A
POSSUM KINGDOM   N/A     79  61  53 S13G21      N/A
LBJ GRASSLAND    N/A     75  63  64 S12G25      N/A
GRANBURY         N/A     79  63  57 S18         N/A
COMANCHE         N/A    N/A N/A N/A S12         N/A
HAMBY            N/A     79  52  38 SW14        N/A
IVIE RESERVOIR   N/A     82  50  32 SW10        N/A
COLORADO BEND    N/A    N/A N/A N/A SW8         N/A
$$

SUPPLEMENTAL OBSERVATIONS (EAST)

CITY           SKY/WX    TMP DP  RH WIND       PRES   REMARKS
CLARKSVILLE      N/A    N/A N/A N/A SE9         N/A
TEXARKANA        N/A     61  59  94 SE5         N/A
LINDEN           N/A     61  59  94 E6G14       N/A
CADDO LAKE       N/A    N/A N/A N/A SE5         N/A
GILMER           N/A     73  64  73 E7          N/A
HENDERSON        N/A    N/A N/A N/A S9G18       N/A
LUFKIN           N/A    N/A N/A N/A MISG        N/A
N SABINE NF      N/A     81  66  61 MISG        N/A
S SABINE NF      N/A     77  63  61 NE3         N/A
$$

SUPPLEMENTAL OBSERVATIONS ARE A COLLECTION OF AUTOMATED INSTRUMENTS
THAT ARE MAINTAINED BY A VARIETY OF FEDERAL AND STATE AGENCIES.
CERTAIN ELEMENTS...SUCH AS HUMIDITY VALUES AND SUSTAINED WIND
SPEEDS...MAY BE APPROXIMATED.




USA.gov is the U.S. government's official web portal to all federal, state and local government web resources and services.